CAPE
0 0 0 0 0 0 0 0 0 0 0 0 0 0 0 0 0 0 0 0 0 0 0 0 0 0 0 0 0 0 0 0 0 0 0 0 0 0 0 0 0 0 0 1
0 0 0 0 0 0 0 0 0 0 0 0 0 0 0 0 0 0 0 0 0 0 0 0 0 0 0 0 0 0 0 0 0 0 0 0 0 0 0 0 0 0 0 1
0 0 0 0 0 0 0 0 0 0 0 0 0 0 0 0 0 0 0 0 0 0 0 0 0 0 0 0 0 0 0 0 0 0 0 0 0 0 0 0 0 0 0 2
0 0 0 0 0 0 0 0 0 0 0 0 0 0 0 0 0 0 0 0 0 0 0 0 0 0 0 0 0 0 0 0 0 0 0 0 0 0 0 0 0 0 0 0
0 0 0 0 0 0 0 0 0 0 0 0 0 0 0 0 0 0 0 0 0 0 0 0 0 0 0 0 0 0 0 0 0 0 0 0 0 0 0 0 0 0 0 0
0 0 0 0 0 0 0 0 0 0 0 0 0 0 0 0 0 0 0 0 0 0 0 0 0 0 0 0 0 0 0 0 0 0 0 0 0 0 0 0 0 0 0 1
0 0 0 0 0 0 0 0 0 0 0 0 0 0 0 0 0 0 0 0 0 0 0 0 0 0 0 0 0 0 0 0 0 0 0 0 0 0 0 0 0 1 2 4
0 0 0 0 0 0 0 0 0 0 0 0 0 0 0 0 0 0 0 0 0 0 0 0 0 0 0 0 0 0 0 0 0 0 0 0 0 0 0 0 1 3 5 6
0 0 0 0 0 0 0 0 0 0 0 0 0 0 0 0 0 0 0 0 0 0 0 0 0 0 0 0 0 0 0 0 0 0 0 0 0 0 0 2 6 7 10 7
0 0 0 0 0 0 0 0 0 0 0 0 0 0 0 0 0 0 0 0 0 0 0 0 0 0 0 0 0 0 0 0 0 0 0 0 0 0 2 5 6 9 10 10
0 0 0 0 0 0 0 0 0 0 0 0 0 0 0 0 0 0 0 0 0 0 0 0 0 0 0 0 0 0 0 0 0 0 0 0 0 0 2 5 5 10 12 11
0 0 0 0 0 0 0 0 0 0 0 0 0 0 0 0 0 0 0 0 0 0 0 0 0 0 0 0 0 0 0 0 0 0 0 0 0 1 3 5 7 13 11 11
0 0 0 0 0 0 0 0 0 0 0 0 4 0 0 0 0 0 0 0 0 0 0 0 0 0 2 0 0 0 0 0 0 0 0 0 3 2 4 6 9 14 14 13
0 4 22 24 10 0 0 0 0 0 1 0 0 0 0 0 0 0 0 0 0 0 0 0 0 0 3 0 1 0 0 0 0 0 0 0 2 5 4 8 10 15 14 15
0 0 0 0 0 0 0 0 0 0 0 0 0 0 0 0 0 0 0 0 0 0 0 0 0 0 0 0 0 0 0 0 0 0 0 0 1 1 4 6 11 12 13 12
2 15 2 4 0 0 0 2 0 0 0 0 0 0 0 0 0 0 0 0 0 0 0 0 0 0 0 0 0 0 0 0 0 0 0 0 0 0 1 5 6 7 10 11
3 24 13 4 0 4 7 1 0 0 1 0 0 0 0 0 0 0 0 0 0 0 0 0 0 0 0 0 0 0 0 0 0 0 0 0 0 0 1 2 4 5 7 10
20 20 52 27 7 8 0 0 0 0 0 0 0 0 0 0 0 0 0 0 0 0 0 0 0 0 0 0 0 0 0 0 0 0 0 0 0 0 0 3 3 5 7 8
3 15 31 33 17 1 0 0 0 0 0 0 0 0 0 0 0 0 0 0 0 0 0 0 0 0 0 0 0 0 0 0 0 0 0 0 0 0 1 3 4 6 6 7
43 23 52 77 51 23 0 0 0 0 0 0 0 0 0 0 0 0 0 0 0 0 0 0 0 0 0 0 0 0 0 0 0 0 0 0 1 1 1 3 5 5 7 5
9 8 3 53 107 55 10 0 0 0 0 0 0 0 0 0 0 0 0 0 0 0 0 0 0 0 0 0 0 0 0 0 0 0 0 0 0 0 2 3 3 4 6 6
14 6 6 26 130 76 0 0 0 0 0 0 0 0 0 0 0 0 0 0 0 0 0 0 0 0 0 0 0 0 0 0 0 0 0 0 0 0 0 1 3 5 8 13
187 390 410 119 150 0 0 0 0 0 0 0 0 0 0 0 0 0 0 0 0 0 0 0 0 0 0 0 0 0 0 0 0 0 0 0 0 1 3 5 11 17 16 18
7 0 16 1 0 0 0 0 0 0 0 0 0 0 0 0 0 0 0 0 0 0 0 0 0 0 0 0 0 0 0 0 1 3 3 7 7 9 13 16 18 21 33 26
269 0 0 4 3 0 0 0 0 0 0 0 0 0 0 0 0 0 0 0 0 0 0 0 0 0 0 0 0 0 0 0 0 3 4 8 14 12 15 18 19 20 24 21
0 8 44 6 1 0 0 0 0 0 0 0 0 0 0 0 0 0 0 0 0 0 0 0 0 0 0 0 0 0 0 0 0 0 4 8 14 16 19 19 18 2 0 0
CIN
-0 -0 -0 -0 -0 -0 -0 -0 -0 -0 -0 -0 -0 -0 -0 -0 -0 -0 -0 -0 -0 -0 -0 -0 -0 -0 -0 -0 -0 -0 -0 -0 -0 -0 -0 -0 -0 -0 -0 -0 -0 -0 -0 -0
-0 -0 -0 -0 -0 -0 -0 -0 -0 -0 -0 -0 -0 -0 -0 -0 -0 -0 -0 -0 -0 -0 -0 -0 -0 -0 -0 -0 -0 -0 -0 -0 -0 -0 -0 -0 -0 -0 -0 -0 -0 -0 -0 -0
-0 -0 -0 -0 -0 -0 -0 -0 -0 -0 -0 -0 -0 -0 -0 -0 -0 -0 -0 -0 -0 -0 -0 -0 -0 -0 -0 -0 -0 -0 -0 -0 -0 -0 -0 -0 -0 -0 -0 -0 -0 -0 -0 -0
-0 -0 -0 -0 -0 -0 -0 -0 -0 -0 -0 -0 -0 -0 -0 -0 -0 -0 -0 -0 -0 -0 -0 -0 -0 -0 -0 -0 -0 -0 -0 -0 -0 -0 -0 -0 -0 -0 -0 -0 -0 -0 -0 -0
-0 -0 -0 -0 -0 -0 -0 -0 -0 -0 -0 -0 -0 -0 -0 -0 -0 -0 -0 -0 -0 -0 -0 -0 -0 -0 -0 -0 -0 -0 -0 -0 -0 -0 -0 -0 -0 -0 -0 -0 -0 -0 -0 -0
-0 -0 -0 -0 -0 -0 -0 -0 -0 -0 -0 -0 -0 -0 -0 -0 -0 -0 -0 -0 -0 -0 -0 -0 -0 -0 -0 -0 -0 -0 -0 -0 -0 -0 -0 -0 -0 -0 -0 -0 -0 -0 -0 -0
-0 -0 -0 -0 -0 -0 -0 -0 -0 -0 -0 -0 -0 -0 -0 -0 -0 -0 -0 -0 -0 -0 -0 -0 -0 -0 -0 -0 -0 -0 -0 -0 -0 -0 -0 -0 -0 -0 -0 -0 -0 -0 -0 -0
-0 -0 -0 -0 -0 -0 -0 -0 -0 -0 -0 -0 -0 -0 -0 -0 -0 -0 -0 -0 -0 -0 -0 -0 -0 -0 -0 -0 -0 -0 -0 -0 -0 -0 -0 -0 -0 -0 -0 -0 -0 -0 -0 -0
-0 -0 -0 -0 -0 -0 -0 -0 -0 -0 -0 -0 -0 -0 -0 -0 -0 -0 -0 -0 -0 -0 -0 -0 -0 -0 -0 -0 -0 -0 -0 -0 -0 -0 -0 -0 -0 -0 -0 -0 -0 -0 -0 -0
-0 -0 -0 -0 -0 -0 -0 -0 -0 -0 -0 -0 -0 -0 -0 -0 -0 -0 -0 -0 -0 -0 -0 -0 -0 -0 -0 -0 -0 -0 -0 -0 -0 -0 -0 -0 -0 -0 -0 -0 -0 -0 -0 -0
-0 -0 -0 -0 -0 -0 -0 -0 -0 -0 -0 -0 -0 -0 -0 -0 -0 -0 -0 -0 -0 -0 -0 -0 -0 -0 -0 -0 -0 -0 -0 -0 -0 -0 -0 -0 -0 -0 -0 -0 -0 -0 -0 -0
-0 -0 -0 -0 -0 -0 -0 -0 -0 -0 -0 -0 -0 -0 -0 -0 -0 -0 -0 -0 -0 -0 -0 -0 -0 -0 -0 -0 -0 -0 -0 -0 -0 -0 -0 -0 -0 -0 -0 -0 -0 -0 -0 -0
-0 -0 -0 -0 -0 -0 -0 -0 -0 -0 -0 -0 -0 -0 -0 -0 -0 -0 -0 -0 -0 -0 -0 -0 -0 -0 -0 -0 -0 -0 -0 -0 -0 -0 -0 -0 -0 -0 -0 -0 -0 -0 -0 -0
-0 -30 -4 -0 -0 -7 -0 -0 -0 -0 -0 -0 -0 -0 -0 -0 -0 -0 -0 -0 -0 -0 -0 -0 -0 -0 -0 -0 -0 -0 -0 -0 -0 -0 -0 -0 -0 -0 -0 -0 -0 -0 -0 -0
-0 -0 -0 -0 -0 -2 -0 -0 -0 -0 -0 -0 -0 -0 -0 -0 -0 -0 -0 -0 -0 -0 -0 -0 -0 -0 -0 -0 -0 -0 -0 -0 -0 -0 -0 -0 -0 -0 -0 -0 -0 -0 -0 -0
-0 -0 -0 -0 -0 -0 -0 -0 -0 -0 -0 -0 -0 -0 -0 -0 -0 -0 -0 -0 -0 -0 -0 -0 -0 -0 -0 -0 -0 -0 -0 -0 -0 -0 -0 -0 -0 -0 -0 -0 -0 -0 -0 -0
-0 -0 -0 -0 -0 -0 -0 -0 -0 -0 -1 -0 -0 -0 -0 -0 -0 -0 -0 -0 -0 -0 -0 -0 -0 -0 -0 -0 -0 -0 -0 -0 -0 -0 -0 -0 -0 -0 -0 -0 -0 -0 -0 -0
-0 -1 -0 -0 -0 -0 -0 -0 -0 -0 -0 -0 -0 -0 -0 -0 -0 -0 -0 -0 -0 -0 -0 -0 -0 -0 -0 -0 -0 -0 -0 -0 -0 -0 -0 -0 -0 -0 -0 -0 -0 -0 -0 -0
-0 -0 -0 -0 -0 -0 -0 -0 -0 -0 -0 -0 -0 -0 -0 -0 -0 -0 -0 -0 -0 -0 -0 -0 -0 -0 -0 -0 -0 -0 -0 -0 -0 -0 -0 -0 -0 -0 -0 -0 -0 -0 -0 -0
-5 -18 -0 -0 -0 -0 -0 -0 -0 -0 -0 -0 -0 -0 -0 -0 -0 -0 -0 -0 -0 -0 -0 -0 -0 -0 -0 -0 -0 -0 -0 -0 -0 -0 -0 -0 -0 -0 -0 -0 -0 -0 -0 -0
-0 -0 -2 -6 -0 -0 -27 -0 -0 -0 -0 -0 -0 -0 -0 -0 -0 -0 -0 -0 -0 -0 -0 -0 -0 -0 -0 -0 -0 -0 -0 -0 -0 -0 -0 -0 -0 -0 -0 -0 -0 -0 -0 -0
-1 -4 -1 -5 -0 -0 -0 -0 -0 -0 -0 -0 -0 -0 -0 -0 -0 -0 -0 -0 -0 -0 -0 -0 -0 -0 -0 -0 -0 -0 -0 -0 -0 -0 -0 -0 -0 -0 -0 -0 -0 -0 -0 -0
-0 -1 -0 -0 -0 -0 -0 -0 -0 -0 -0 -0 -0 -0 -0 -0 -0 -0 -0 -0 -0 -0 -0 -0 -0 -0 -0 -0 -0 -0 -0 -0 -0 -0 -0 -0 -0 -0 -0 -0 -0 -0 -0 -0
-17 -0 -13 -0 -0 -0 -0 -0 -0 -0 -0 -0 -0 -0 -0 -0 -0 -0 -0 -0 -0 -0 -0 -0 -0 -0 -0 -0 -0 -0 -0 -0 -0 -0 -0 -0 -0 -0 -0 -0 -0 -0 -0 -0
-0 -0 -0 -0 -0 -0 -0 -0 -0 -0 -0 -0 -0 -0 -0 -0 -0 -0 -0 -0 -0 -0 -0 -0 -0 -0 -0 -0 -0 -0 -0 -0 -0 -0 -0 -0 -0 -0 -0 -0 -0 -0 -0 -0
-3 -24 -13 -26 -6 -0 -0 -0 -0 -0 -0 -0 -0 -0 -0 -0 -0 -0 -0 -0 -0 -0 -0 -0 -0 -0 -0 -0 -0 -0 -0 -0 -0 -0 -0 -0 -0 -0 -0 -0 -0 -0 -0 -0
Wind_Speed
6 9 11 14 15 14 9 10 10 4 4 7 9 10 15 16 15 15 14 13 12 11 10 8 7 6 7 8 9 10 11 12 9 8 9 6 8 7 6 7 10 11 11 12
7 15 13 6 8 11 12 12 11 4 3 7 6 9 14 17 16 17 16 15 14 13 12 9 7 6 7 8 8 9 10 10 10 7 7 5 7 6 7 7 8 11 11 11
17 1 2 13 11 13 14 13 9 10 4 3 6 12 16 17 15 17 16 15 15 14 13 11 8 6 6 7 7 8 8 8 9 9 6 6 5 5 6 8 7 10 11 11
14 14 7 12 15 13 12 10 12 11 9 11 7 6 17 18 20 19 18 17 16 15 13 12 10 8 6 6 5 7 7 7 7 9 8 10 8 9 8 8 9 9 10 11
9 11 18 15 12 14 3 2 8 8 10 9 12 10 4 16 17 22 21 20 18 17 16 14 11 9 6 6 5 5 6 7 8 8 9 8 9 8 8 8 11 10 9 10
15 2 9 13 8 14 9 8 5 3 6 12 18 14 12 12 18 17 20 20 20 18 16 14 11 9 8 6 5 4 6 7 7 8 9 9 10 10 9 9 9 8 8 9
16 15 5 8 9 9 16 12 6 8 9 10 2 11 14 6 5 8 20 22 21 19 17 15 14 11 8 6 5 4 5 6 7 7 8 9 10 10 11 10 9 12 9 9
15 11 21 16 14 9 22 19 9 12 14 11 5 10 3 3 5 6 11 18 19 19 17 16 14 10 9 6 5 4 4 5 7 8 9 9 10 8 8 9 9 8 8 8
9 11 2 3 9 12 10 16 16 11 2 6 10 11 7 7 8 10 12 18 20 19 18 16 13 10 9 7 5 3 4 6 7 8 8 9 9 10 9 10 9 8 11 10
4 7 4 7 7 10 12 8 8 10 10 16 12 12 10 13 15 13 15 18 19 19 17 15 13 11 8 7 6 4 5 6 6 8 8 8 9 9 9 9 10 11 12 12
10 5 5 5 13 16 11 14 9 9 15 13 15 12 5 4 14 17 17 18 20 20 18 15 13 11 9 7 5 5 3 4 7 8 8 9 8 9 9 9 10 11 13 12
10 2 9 14 2 6 14 18 20 8 12 6 6 17 7 5 10 13 13 17 18 19 17 15 13 11 9 7 6 4 1 4 6 7 8 8 8 9 9 10 11 12 12 12
9 7 10 8 10 4 7 15 16 16 2 17 12 11 4 7 8 12 15 17 18 18 17 15 14 11 6 5 5 3 2 4 6 8 7 7 8 8 9 10 11 12 12 12
7 7 13 17 11 2 8 15 13 17 12 17 17 20 14 11 12 13 15 17 19 18 18 16 14 12 8 7 5 4 2 3 6 7 7 7 7 8 9 10 10 11 12 12
3 7 12 18 20 19 12 14 19 23 27 14 20 25 30 18 16 15 15 16 19 19 19 17 15 13 11 8 7 5 2 4 6 6 7 7 8 8 9 10 10 11 11 11
3 4 10 20 26 24 22 23 27 24 25 23 23 27 19 4 6 13 14 17 19 19 18 17 15 13 10 8 6 4 3 4 5 6 6 7 8 9 10 10 11 11 11 11
11 5 5 7 17 15 15 31 26 28 27 21 20 25 14 9 11 12 13 16 18 19 18 16 14 12 9 7 6 3 3 3 4 5 6 7 8 9 10 10 11 12 12 12
7 11 6 5 6 8 11 8 24 26 22 20 17 12 8 8 6 5 9 15 17 18 18 15 13 11 9 8 6 3 3 3 4 5 6 7 8 9 10 11 11 12 11 12
10 5 4 4 8 9 15 11 13 13 27 25 23 18 9 12 12 6 6 13 17 18 16 14 12 11 9 7 5 4 4 3 4 6 7 8 9 10 10 11 12 12 12 12
17 14 8 7 6 9 7 3 13 7 18 12 19 14 13 14 9 7 12 16 18 16 15 14 13 11 9 7 5 5 4 4 6 6 7 8 8 10 10 11 11 11 11 12
6 6 14 12 11 8 9 8 11 12 4 7 12 14 16 13 3 21 18 17 17 16 16 14 11 9 8 7 6 5 4 5 6 6 7 8 9 10 10 11 10 11 11 12
13 9 6 7 9 13 14 13 14 4 3 8 9 12 15 14 18 20 18 18 17 17 15 12 10 9 8 7 5 5 5 5 6 6 7 8 9 8 8 11 11 12 11 12
8 8 7 9 7 3 12 3 2 4 10 8 12 15 17 20 21 20 18 17 15 15 12 10 10 10 8 7 4 5 6 6 5 7 8 8 9 9 9 10 10 9 9 10
11 7 4 2 10 9 9 4 1 3 7 13 13 17 19 21 20 19 16 15 13 12 11 10 10 9 8 7 6 6 6 5 5 5 6 7 7 9 8 7 7 8 8 9
8 10 13 11 10 5 9 8 6 7 11 15 16 17 19 20 19 18 16 14 12 11 11 9 9 8 8 7 6 6 5 4 5 4 4 6 6 7 8 7 6 6 7 9
8 9 10 8 8 8 10 14 13 15 16 18 18 18 16 16 18 17 14 12 12 11 11 9 9 9 8 7 6 6 5 5 5 4 5 5 5 6 7 8 8 6 4 9
Wind_Direction
203 233 221 228 230 270 274 252 250 220 122 238 221 201 179 179 195 190 186 179 172 158 144 129 109 91 79 58 48 40 35 26 20 21 14 7 4 9 6 5 1 357 358 359
211 240 244 244 229 228 230 238 234 220 180 257 200 199 180 187 199 194 194 188 179 163 164 150 131 104 74 59 47 41 39 33 25 22 14 1 353 353 353 355 350 359 353 353
237 257 310 210 208 214 225 233 228 261 162 225 208 215 195 199 206 204 205 197 187 183 172 161 152 123 98 69 53 47 41 38 34 10 14 2 353 344 352 349 346 350 348 344
241 230 201 201 221 214 227 226 243 245 241 247 218 277 189 184 202 206 202 200 192 184 173 167 161 148 116 98 84 59 48 40 37 25 16 7 358 349 349 338 341 333 343 335
208 204 207 211 214 199 234 206 212 229 244 288 217 259 155 182 207 209 205 198 196 187 180 174 169 146 132 114 94 72 60 43 37 27 16 2 359 346 335 329 326 325 328 330
261 310 216 225 216 201 140 142 142 199 260 246 240 230 259 179 217 207 201 197 197 188 180 171 162 160 141 138 120 85 47 46 31 20 14 3 350 337 331 333 323 334 326 331
219 219 184 174 172 188 197 183 201 219 213 250 70 220 257 148 171 211 195 194 193 186 180 176 175 176 155 142 124 102 49 46 28 14 6 358 349 335 331 335 334 330 336 340
208 204 205 184 216 196 205 205 214 238 246 251 159 231 236 111 176 176 187 189 186 184 183 185 179 168 157 158 138 116 57 36 24 9 360 354 350 341 332 338 331 325 332 316
206 229 226 208 199 194 179 228 242 270 241 264 241 227 190 173 181 187 183 180 185 185 186 183 173 169 166 164 139 102 38 29 18 1 353 349 345 340 334 330 327 334 325 332
216 257 180 155 199 220 236 181 193 216 238 238 251 254 261 193 202 184 182 187 184 188 184 180 174 170 167 156 137 105 40 13 3 352 350 346 340 338 331 327 334 334 333 331
218 234 133 168 210 207 196 213 230 260 233 253 257 249 63 238 186 189 192 190 187 187 185 179 174 166 162 155 131 102 38 3 354 345 344 342 342 337 331 334 341 339 330 337
215 228 241 227 187 300 263 232 213 217 202 239 271 258 132 142 177 190 187 190 188 187 182 177 167 163 161 146 133 129 59 9 349 341 342 340 341 338 336 343 344 336 335 333
158 201 236 236 219 188 238 227 241 228 264 223 226 250 155 158 183 191 191 186 187 185 177 169 168 155 123 130 133 135 76 10 344 342 340 340 342 341 341 341 346 331 334 332
224 201 216 244 264 11 224 222 227 237 230 243 241 266 241 209 208 197 198 189 187 184 175 172 168 152 144 136 143 149 95 8 342 341 335 341 341 340 344 342 340 338 334 332
42 250 242 259 265 263 239 260 222 217 230 216 241 243 252 250 221 208 198 192 185 183 178 174 165 159 152 154 154 142 74 3 345 337 337 345 342 341 345 345 337 337 336 334
335 229 230 239 249 251 251 253 239 244 244 236 246 256 261 265 202 211 201 190 188 181 177 171 159 148 146 150 140 120 32 8 339 345 345 345 346 346 348 343 337 338 337 337
173 175 215 243 241 251 252 234 245 248 243 238 234 241 252 194 208 207 193 192 185 176 171 160 149 144 141 135 120 85 31 13 352 348 348 348 349 347 345 341 340 340 340 337
199 193 187 247 175 209 240 236 223 237 237 227 238 229 220 222 153 188 195 186 172 164 159 147 140 138 133 122 108 113 66 39 2 356 351 353 350 346 343 342 342 340 340 338
194 211 217 225 222 302 286 228 209 209 244 237 243 238 177 146 123 76 163 162 156 154 143 137 132 125 121 117 120 111 74 38 14 1 355 355 351 343 341 343 342 342 337 339
199 220 207 219 228 230 260 241 197 187 262 223 210 199 175 163 201 138 156 144 133 130 129 130 126 121 122 117 110 88 70 38 19 1 357 353 350 342 339 341 339 340 339 342
196 209 213 222 239 242 248 166 171 197 237 170 193 173 174 187 360 130 136 132 131 127 126 124 124 119 113 109 99 94 78 42 12 2 360 355 348 345 340 337 342 341 345 342
192 194 205 224 230 245 172 162 193 175 100 150 154 150 141 121 124 132 134 130 131 130 130 127 127 118 111 99 105 101 70 35 18 10 4 356 355 347 341 342 346 345 349 345
222 208 233 214 230 42 195 310 114 195 150 151 143 137 141 138 139 139 136 137 137 134 130 134 125 118 108 101 87 89 53 35 19 22 8 360 355 352 354 345 352 347 342 344
217 186 220 264 231 220 216 204 257 278 146 141 145 145 143 138 141 139 142 139 137 136 133 131 130 122 118 110 92 65 53 27 50 37 5 357 352 349 358 346 355 348 351 347
214 179 221 236 234 243 245 217 177 176 132 135 139 145 141 140 143 145 144 141 137 133 135 137 129 127 121 114 90 71 50 33 41 35 6 11 354 357 350 352 358 349 4 358
189 218 203 227 182 201 239 186 176 156 149 144 141 137 142 144 144 142 139 138 138 139 138 137 131 128 125 109 91 77 55 50 19 18 16 17 352 358 353 344 344 8 12 354